contact:dominique.lefevre@mio.osupytheas.fr, maurice.libes@osupytheas.fr, didier.mallarino@osupytheas.fr
Project:EMSO http://www.emso-fr.org/EMSO-France
Depth: 2436.0 m
Title:EMSO Ligure Ouest : Data MII capteur MICROCAT
DateTime_Computer,Latitude,Longitude,Temperature,Conductivity,Pressure,DateTime_Instrument
DateTime_Computer,Latitude,Longitude,degC,S m-1,dbar,DateTime_Instrument
2019-12-22T00:01:05Z,42.805,6.029,13.2968,4.59973,2469.806,2019-12-22T02:01:36Z
2019-12-22T00:04:08Z,42.805,6.029,13.2969,4.59971,2469.867,2019-12-22T02:04:39Z
2019-12-22T00:07:11Z,42.805,6.029,13.2970,4.59976,2469.839,2019-12-22T02:07:42Z
2019-12-22T00:10:15Z,42.805,6.029,13.2967,4.59970,2469.9,2019-12-22T02:10:45Z
2019-12-22T00:13:18Z,42.805,6.029,13.2972,4.59975,2469.816,2019-12-22T02:13:48Z
2019-12-22T00:16:21Z,42.805,6.029,13.2968,4.59969,2469.89,2019-12-22T02:16:52Z
2019-12-22T00:19:24Z,42.805,6.029,13.2968,4.59973,2469.89,2019-12-22T02:19:55Z
2019-12-22T00:22:27Z,42.805,6.029,13.2968,4.59972,2469.89,2019-12-22T02:22:58Z
2019-12-22T00:25:31Z,42.805,6.029,13.2971,4.59968,2469.89,2019-12-22T02:26:01Z
2019-12-22T00:28:34Z,42.805,6.029,13.2965,4.59968,2469.923,2019-12-22T02:29:05Z
2019-12-22T00:31:37Z,42.805,6.029,13.2964,4.59967,2469.853,2019-12-22T02:32:08Z
2019-12-22T00:34:40Z,42.805,6.029,13.2965,4.59971,2469.9,2019-12-22T02:35:11Z
2019-12-22T00:37:43Z,42.805,6.029,13.2969,4.59979,2469.9,2019-12-22T02:38:14Z
2019-12-22T00:40:47Z,42.805,6.029,13.2970,4.59971,2469.89,2019-12-22T02:41:17Z
2019-12-22T00:43:50Z,42.805,6.029,13.2968,4.59982,2469.89,2019-12-22T02:44:21Z
2019-12-22T00:46:53Z,42.805,6.029,13.2967,4.59974,2469.876,2019-12-22T02:47:24Z
2019-12-22T00:49:57Z,42.805,6.029,13.2969,4.59968,2469.867,2019-12-22T02:50:27Z
2019-12-22T00:53:00Z,42.805,6.029,13.2970,4.59973,2469.89,2019-12-22T02:53:30Z
2019-12-22T00:56:03Z,42.805,6.029,13.2967,4.59970,2469.914,2019-12-22T02:56:34Z
2019-12-22T00:59:06Z,42.805,6.029,13.2965,4.59970,2469.89,2019-12-22T02:59:37Z
2019-12-22T01:02:09Z,42.805,6.029,13.2965,4.59973,2469.867,2019-12-22T03:02:40Z
2019-12-22T01:05:12Z,42.805,6.029,13.2969,4.59969,2469.923,2019-12-22T03:05:43Z
2019-12-22T01:08:16Z,42.805,6.029,13.2964,4.59971,2469.853,2019-12-22T03:08:46Z
2019-12-22T01:11:19Z,42.805,6.029,13.2964,4.59968,2469.876,2019-12-22T03:11:50Z
2019-12-22T01:14:22Z,42.805,6.029,13.2971,4.59981,2469.914,2019-12-22T03:14:53Z
2019-12-22T01:17:25Z,42.805,6.029,13.2968,4.59986,2469.914,2019-12-22T03:17:56Z
2019-12-22T01:20:29Z,42.805,6.029,13.2967,4.59973,2469.9,2019-12-22T03:20:59Z
2019-12-22T01:23:32Z,42.805,6.029,13.2963,4.59969,2469.923,2019-12-22T03:24:02Z
2019-12-22T01:26:35Z,42.805,6.029,13.2971,4.59973,2469.923,2019-12-22T03:27:06Z
2019-12-22T01:29:39Z,42.805,6.029,13.2971,4.59973,2469.9,2019-12-22T03:30:09Z
2019-12-22T01:32:42Z,42.805,6.029,13.2967,4.59981,2469.914,2019-12-22T03:33:12Z
2019-12-22T01:35:45Z,42.805,6.029,13.2962,4.59979,2469.923,2019-12-22T03:36:16Z
2019-12-22T01:38:48Z,42.805,6.029,13.2967,4.59976,2469.9,2019-12-22T03:39:19Z
2019-12-22T01:41:51Z,42.805,6.029,13.2969,4.59970,2469.947,2019-12-22T03:42:22Z
2019-12-22T01:44:55Z,42.805,6.029,13.2974,4.59974,2469.947,2019-12-22T03:45:25Z
2019-12-22T01:47:58Z,42.805,6.029,13.2968,4.59972,2469.947,2019-12-22T03:48:28Z
2019-12-22T01:51:01Z,42.805,6.029,13.2966,4.59974,2469.923,2019-12-22T03:51:32Z
2019-12-22T01:54:04Z,42.805,6.029,13.2968,4.59975,2469.937,2019-12-22T03:54:35Z
2019-12-22T01:57:07Z,42.805,6.029,13.2968,4.59975,2469.923,2019-12-22T03:57:38Z
2019-12-22T02:00:11Z,42.805,6.029,13.2970,4.59972,2469.947,2019-12-22T04:00:41Z
2019-12-22T02:03:14Z,42.805,6.029,13.2966,4.59973,2469.937,2019-12-22T04:03:45Z
2019-12-22T02:06:17Z,42.805,6.029,13.2968,4.59978,2469.9,2019-12-22T04:06:48Z
2019-12-22T02:09:21Z,42.805,6.029,13.2967,4.59974,2469.923,2019-12-22T04:09:51Z
2019-12-22T02:12:24Z,42.805,6.029,13.2970,4.59974,2469.947,2019-12-22T04:12:54Z
2019-12-22T02:15:27Z,42.805,6.029,13.2966,4.59973,2469.923,2019-12-22T04:15:57Z
2019-12-22T02:18:30Z,42.805,6.029,13.2964,4.59981,2469.97,2019-12-22T04:19:01Z
2019-12-22T02:21:33Z,42.805,6.029,13.2967,4.59976,2469.96,2019-12-22T04:22:04Z
2019-12-22T02:24:36Z,42.805,6.029,13.2966,4.59972,2469.947,2019-12-22T04:25:07Z
2019-12-22T02:27:40Z,42.805,6.029,13.2967,4.59975,2469.97,2019-12-22T04:28:10Z
2019-12-22T02:30:43Z,42.805,6.029,13.2973,4.59973,2469.97,2019-12-22T04:31:14Z
2019-12-22T02:33:46Z,42.805,6.029,13.2967,4.59978,2469.96,2019-12-22T04:34:17Z
2019-12-22T02:36:49Z,42.805,6.029,13.2976,4.59975,2469.97,2019-12-22T04:37:20Z
2019-12-22T02:39:53Z,42.805,6.029,13.2970,4.59973,2469.947,2019-12-22T04:40:23Z
2019-12-22T02:42:56Z,42.805,6.029,13.2967,4.59979,2469.993,2019-12-22T04:43:26Z
2019-12-22T02:45:59Z,42.805,6.029,13.2965,4.59976,2469.97,2019-12-22T04:46:30Z
2019-12-22T02:49:02Z,42.805,6.029,13.2982,4.59979,2469.984,2019-12-22T04:49:33Z
2019-12-22T02:52:05Z,42.805,6.029,13.2966,4.59975,2469.984,2019-12-22T04:52:36Z
2019-12-22T02:55:09Z,42.805,6.029,13.2974,4.59980,2469.97,2019-12-22T04:55:39Z
2019-12-22T02:58:12Z,42.805,6.029,13.2966,4.59971,2469.993,2019-12-22T04:58:42Z
2019-12-22T03:01:15Z,42.805,6.029,13.2967,4.59973,2470.017,2019-12-22T05:01:46Z
2019-12-22T03:04:18Z,42.805,6.029,13.2974,4.59994,2469.993,2019-12-22T05:04:49Z
2019-12-22T03:07:21Z,42.805,6.029,13.2968,4.59980,2470.017,2019-12-22T05:07:52Z
2019-12-22T03:10:25Z,42.805,6.029,13.2966,4.59973,2470.007,2019-12-22T05:10:55Z
2019-12-22T03:13:28Z,42.805,6.029,13.2964,4.59973,2469.97,2019-12-22T05:13:59Z
2019-12-22T03:16:31Z,42.805,6.029,13.2967,4.59977,2469.97,2019-12-22T05:17:02Z
2019-12-22T03:19:35Z,42.805,6.029,13.2967,4.59973,2469.97,2019-12-22T05:20:05Z
2019-12-22T03:22:38Z,42.805,6.029,13.2971,4.59975,2470.007,2019-12-22T05:23:08Z
2019-12-22T03:25:41Z,42.805,6.029,13.2968,4.59973,2469.984,2019-12-22T05:26:11Z
2019-12-22T03:28:44Z,42.805,6.029,13.2972,4.59978,2470.017,2019-12-22T05:29:15Z
2019-12-22T03:31:47Z,42.805,6.029,13.2972,4.59980,2470.017,2019-12-22T05:32:18Z
2019-12-22T03:34:51Z,42.805,6.029,13.2966,4.59973,2469.993,2019-12-22T05:35:21Z
2019-12-22T03:37:54Z,42.805,6.029,13.2967,4.59978,2469.97,2019-12-22T05:38:24Z
2019-12-22T03:40:57Z,42.805,6.029,13.2968,4.59976,2470.007,2019-12-22T05:41:28Z
2019-12-22T03:44:00Z,42.805,6.029,13.2968,4.59973,2470.007,2019-12-22T05:44:31Z
2019-12-22T03:47:04Z,42.805,6.029,13.2970,4.59974,2470.03,2019-12-22T05:47:34Z
2019-12-22T03:50:07Z,42.805,6.029,13.2964,4.59971,2470.007,2019-12-22T05:50:37Z
2019-12-22T03:53:10Z,42.805,6.029,13.2972,4.59981,2469.993,2019-12-22T05:53:40Z
2019-12-22T03:56:13Z,42.805,6.029,13.2966,4.59976,2470.03,2019-12-22T05:56:44Z
2019-12-22T03:59:16Z,42.805,6.029,13.2967,4.59980,2469.97,2019-12-22T05:59:47Z
2019-12-22T04:02:20Z,42.805,6.029,13.2975,4.59978,2469.993,2019-12-22T06:02:50Z
2019-12-22T04:05:23Z,42.805,6.029,13.2976,4.59981,2469.993,2019-12-22T06:05:53Z
2019-12-22T04:08:26Z,42.805,6.029,13.2969,4.59981,2470.007,2019-12-22T06:08:57Z
2019-12-22T04:11:29Z,42.805,6.029,13.2970,4.59988,2470.007,2019-12-22T06:12:00Z
2019-12-22T04:14:32Z,42.805,6.029,13.2966,4.59983,2470.053,2019-12-22T06:15:03Z
2019-12-22T04:17:36Z,42.805,6.029,13.2964,4.59970,2469.984,2019-12-22T06:18:06Z
2019-12-22T04:20:39Z,42.805,6.029,13.2967,4.59969,2469.993,2019-12-22T06:21:09Z
2019-12-22T04:23:42Z,42.805,6.029,13.2967,4.59974,2470.017,2019-12-22T06:24:13Z
2019-12-22T04:26:45Z,42.805,6.029,13.2967,4.59976,2470.017,2019-12-22T06:27:16Z
2019-12-22T04:29:49Z,42.805,6.029,13.2969,4.59973,2470.017,2019-12-22T06:30:19Z
2019-12-22T04:32:52Z,42.805,6.029,13.2971,4.59979,2470.007,2019-12-22T06:33:23Z
2019-12-22T04:35:55Z,42.805,6.029,13.2973,4.59990,2470.04,2019-12-22T06:36:26Z
2019-12-22T04:38:58Z,42.805,6.029,13.2971,4.59993,2470.007,2019-12-22T06:39:29Z
2019-12-22T04:42:02Z,42.805,6.029,13.2964,4.59974,2469.97,2019-12-22T06:42:32Z
2019-12-22T04:45:05Z,42.805,6.029,13.2966,4.59973,2470.017,2019-12-22T06:45:35Z
2019-12-22T04:48:08Z,42.805,6.029,13.2982,4.59987,2469.993,2019-12-22T06:48:39Z
2019-12-22T04:51:11Z,42.805,6.029,13.2965,4.59980,2469.993,2019-12-22T06:51:42Z
2019-12-22T04:54:14Z,42.805,6.029,13.2964,4.59976,2469.947,2019-12-22T06:54:45Z
2019-12-22T04:57:18Z,42.805,6.029,13.2971,4.59982,2469.97,2019-12-22T06:57:48Z
2019-12-22T05:00:21Z,42.805,6.029,13.2973,4.59982,2470.007,2019-12-22T07:00:52Z
2019-12-22T05:03:24Z,42.805,6.029,13.2968,4.59971,2469.947,2019-12-22T07:03:55Z
2019-12-22T05:06:27Z,42.805,6.029,13.2968,4.59975,2469.993,2019-12-22T07:06:58Z
2019-12-22T05:09:31Z,42.805,6.029,13.2968,4.59993,2469.993,2019-12-22T07:10:01Z
2019-12-22T05:12:34Z,42.805,6.029,13.2967,4.59973,2470.017,2019-12-22T07:13:04Z
2019-12-22T05:15:37Z,42.805,6.029,13.2971,4.59972,2470.053,2019-12-22T07:16:08Z
2019-12-22T05:18:40Z,42.805,6.029,13.2965,4.59971,2469.979,2019-12-22T07:19:11Z
2019-12-22T05:21:44Z,42.805,6.029,13.2970,4.59971,2470.017,2019-12-22T07:22:14Z
2019-12-22T05:24:47Z,42.805,6.029,13.2967,4.59974,2469.97,2019-12-22T07:25:17Z
2019-12-22T05:27:50Z,42.805,6.029,13.2972,4.59983,2469.993,2019-12-22T07:28:21Z
2019-12-22T05:30:53Z,42.805,6.029,13.2976,4.59981,2469.984,2019-12-22T07:31:24Z
2019-12-22T05:33:56Z,42.805,6.029,13.2967,4.59968,2470.017,2019-12-22T07:34:27Z
2019-12-22T05:37:00Z,42.805,6.029,13.2968,4.59975,2470.03,2019-12-22T07:37:30Z
2019-12-22T05:40:03Z,42.805,6.029,13.2971,4.59978,2470.007,2019-12-22T07:40:34Z
2019-12-22T05:43:06Z,42.805,6.029,13.2968,4.59983,2470.007,2019-12-22T07:43:37Z
2019-12-22T05:46:09Z,42.805,6.029,13.2968,4.59978,2469.993,2019-12-22T07:46:40Z
2019-12-22T05:49:13Z,42.805,6.029,13.2968,4.59973,2470.007,2019-12-22T07:49:43Z
2019-12-22T05:52:16Z,42.805,6.029,13.2968,4.59977,2469.993,2019-12-22T07:52:46Z
2019-12-22T05:55:19Z,42.805,6.029,13.2964,4.59971,2469.993,2019-12-22T07:55:50Z
2019-12-22T05:58:22Z,42.805,6.029,13.2967,4.59993,2469.993,2019-12-22T07:58:53Z
2019-12-22T06:01:26Z,42.805,6.029,13.2964,4.59973,2470.017,2019-12-22T08:01:56Z
2019-12-22T06:04:29Z,42.805,6.029,13.2974,4.59978,2470.007,2019-12-22T08:04:59Z
2019-12-22T06:07:32Z,42.805,6.029,13.2976,4.59995,2470.017,2019-12-22T08:08:03Z
2019-12-22T06:10:35Z,42.805,6.029,13.2967,4.59987,2470.017,2019-12-22T08:11:06Z
2019-12-22T06:13:39Z,42.805,6.029,13.2970,4.59973,2470.007,2019-12-22T08:14:09Z
2019-12-22T06:16:42Z,42.805,6.029,13.2968,4.59980,2470.007,2019-12-22T08:17:12Z
2019-12-22T06:19:45Z,42.805,6.029,13.2973,4.59994,2469.993,2019-12-22T08:20:16Z
2019-12-22T06:22:48Z,42.805,6.029,13.2965,4.59973,2469.97,2019-12-22T08:23:19Z
2019-12-22T06:25:51Z,42.805,6.029,13.2965,4.59976,2469.993,2019-12-22T08:26:22Z
2019-12-22T06:28:55Z,42.805,6.029,13.2971,4.59989,2469.97,2019-12-22T08:29:25Z
2019-12-22T06:31:58Z,42.805,6.029,13.2976,4.59994,2469.97,2019-12-22T08:32:29Z
2019-12-22T06:35:01Z,42.805,6.029,13.2965,4.59973,2470.017,2019-12-22T08:35:32Z
2019-12-22T06:38:04Z,42.805,6.029,13.2972,4.59985,2470.03,2019-12-22T08:38:35Z
2019-12-22T06:41:07Z,42.805,6.029,13.2964,4.59973,2469.993,2019-12-22T08:41:38Z
2019-12-22T06:44:11Z,42.805,6.029,13.2970,4.59986,2470.007,2019-12-22T08:44:41Z
2019-12-22T06:47:14Z,42.805,6.029,13.2971,4.59973,2469.993,2019-12-22T08:47:45Z
2019-12-22T06:50:17Z,42.805,6.029,13.2966,4.59971,2469.993,2019-12-22T08:50:48Z
2019-12-22T06:53:20Z,42.805,6.029,13.2965,4.59975,2469.993,2019-12-22T08:53:51Z
2019-12-22T06:56:24Z,42.805,6.029,13.2968,4.59980,2469.993,2019-12-22T08:56:54Z
2019-12-22T06:59:27Z,42.805,6.029,13.2964,4.59974,2469.97,2019-12-22T08:59:57Z
2019-12-22T07:02:30Z,42.805,6.029,13.2971,4.59993,2470.017,2019-12-22T09:03:01Z
2019-12-22T07:05:33Z,42.805,6.029,13.2961,4.59978,2469.993,2019-12-22T09:06:04Z
2019-12-22T07:08:36Z,42.805,6.029,13.2968,4.59973,2470.017,2019-12-22T09:09:07Z
2019-12-22T07:11:40Z,42.805,6.029,13.2959,4.59971,2469.96,2019-12-22T09:12:10Z
2019-12-22T07:14:43Z,42.805,6.029,13.2967,4.59992,2470.007,2019-12-22T09:15:14Z
2019-12-22T07:17:46Z,42.805,6.029,13.2967,4.59982,2469.993,2019-12-22T09:18:17Z
2019-12-22T07:20:50Z,42.805,6.029,13.2970,4.59991,2469.956,2019-12-22T09:21:20Z
2019-12-22T07:23:53Z,42.805,6.029,13.2965,4.59969,2469.993,2019-12-22T09:24:23Z
2019-12-22T07:26:56Z,42.805,6.029,13.2967,4.59971,2469.993,2019-12-22T09:27:27Z
2019-12-22T07:29:59Z,42.805,6.029,13.2964,4.59974,2469.993,2019-12-22T09:30:30Z
2019-12-22T07:33:03Z,42.805,6.029,13.2964,4.59971,2470.007,2019-12-22T09:33:33Z
2019-12-22T07:36:06Z,42.805,6.029,13.2966,4.59970,2469.993,2019-12-22T09:36:36Z
2019-12-22T07:39:09Z,42.805,6.029,13.2966,4.59976,2469.97,2019-12-22T09:39:40Z
2019-12-22T07:42:13Z,42.805,6.029,13.2974,4.59981,2469.993,2019-12-22T09:42:43Z
2019-12-22T07:45:16Z,42.805,6.029,13.2971,4.59996,2469.993,2019-12-22T09:45:47Z
2019-12-22T07:48:19Z,42.805,6.029,13.2975,4.59993,2469.947,2019-12-22T09:48:50Z
2019-12-22T07:51:22Z,42.805,6.029,13.2961,4.59978,2469.947,2019-12-22T09:51:53Z
2019-12-22T07:54:26Z,42.805,6.029,13.2964,4.59972,2469.97,2019-12-22T09:54:56Z
2019-12-22T07:57:29Z,42.805,6.029,13.2964,4.59979,2469.947,2019-12-22T09:58:00Z
2019-12-22T08:00:32Z,42.805,6.029,13.2964,4.59979,2469.984,2019-12-22T10:01:03Z
2019-12-22T08:03:35Z,42.805,6.029,13.2973,4.59985,2469.97,2019-12-22T10:04:06Z
2019-12-22T08:06:39Z,42.805,6.029,13.2969,4.59980,2469.979,2019-12-22T10:07:09Z
2019-12-22T08:09:42Z,42.805,6.029,13.2964,4.59976,2469.947,2019-12-22T10:10:12Z
2019-12-22T08:12:45Z,42.805,6.029,13.2963,4.59969,2470.007,2019-12-22T10:13:16Z
2019-12-22T08:15:48Z,42.805,6.029,13.2968,4.59973,2469.97,2019-12-22T10:16:19Z
2019-12-22T08:18:52Z,42.805,6.029,13.2971,4.59990,2469.984,2019-12-22T10:19:22Z
2019-12-22T08:21:55Z,42.805,6.029,13.2964,4.59977,2469.923,2019-12-22T10:22:25Z
2019-12-22T08:24:58Z,42.805,6.029,13.2968,4.59975,2469.947,2019-12-22T10:25:29Z
2019-12-22T08:28:01Z,42.805,6.029,13.2961,4.59971,2469.96,2019-12-22T10:28:32Z
2019-12-22T08:31:04Z,42.805,6.029,13.2967,4.59969,2469.96,2019-12-22T10:31:35Z
2019-12-22T08:34:08Z,42.805,6.029,13.2966,4.59973,2469.984,2019-12-22T10:34:38Z
2019-12-22T08:37:11Z,42.805,6.029,13.2964,4.59968,2469.947,2019-12-22T10:37:42Z
2019-12-22T08:40:14Z,42.805,6.029,13.2967,4.59971,2469.97,2019-12-22T10:40:45Z
2019-12-22T08:43:17Z,42.805,6.029,13.2970,4.59970,2469.96,2019-12-22T10:43:48Z
2019-12-22T08:46:21Z,42.805,6.029,13.2964,4.59986,2469.984,2019-12-22T10:46:51Z
2019-12-22T08:49:24Z,42.805,6.029,13.2970,4.59975,2469.993,2019-12-22T10:49:54Z
2019-12-22T08:52:27Z,42.805,6.029,13.2968,4.59991,2469.923,2019-12-22T10:52:58Z
2019-12-22T08:55:30Z,42.805,6.029,13.2959,4.59973,2469.984,2019-12-22T10:56:01Z
2019-12-22T08:58:33Z,42.805,6.029,13.2966,4.59969,2469.96,2019-12-22T10:59:04Z
2019-12-22T09:01:37Z,42.805,6.029,13.2966,4.59981,2469.993,2019-12-22T11:02:07Z
2019-12-22T09:04:40Z,42.805,6.029,13.2970,4.59973,2469.97,2019-12-22T11:05:11Z
2019-12-22T09:07:43Z,42.805,6.029,13.2971,4.59978,2469.96,2019-12-22T11:08:14Z
2019-12-22T09:10:46Z,42.805,6.029,13.2964,4.59968,2469.97,2019-12-22T11:11:17Z
2019-12-22T09:13:50Z,42.805,6.029,13.2964,4.59971,2469.984,2019-12-22T11:14:20Z
2019-12-22T09:16:53Z,42.805,6.029,13.2969,4.59972,2469.97,2019-12-22T11:17:23Z
2019-12-22T09:19:56Z,42.805,6.029,13.2963,4.59971,2469.97,2019-12-22T11:20:27Z
2019-12-22T09:22:59Z,42.805,6.029,13.2974,4.59986,2469.947,2019-12-22T11:23:30Z
2019-12-22T09:26:03Z,42.805,6.029,13.2961,4.59973,2469.937,2019-12-22T11:26:33Z
2019-12-22T09:29:06Z,42.805,6.029,13.2964,4.59968,2469.947,2019-12-22T11:29:37Z
2019-12-22T09:32:09Z,42.805,6.029,13.2960,4.59967,2469.97,2019-12-22T11:32:40Z
2019-12-22T09:35:13Z,42.805,6.029,13.2959,4.59971,2469.947,2019-12-22T11:35:43Z
2019-12-22T09:38:16Z,42.805,6.029,13.2967,4.59971,2469.96,2019-12-22T11:38:46Z
2019-12-22T09:41:19Z,42.805,6.029,13.2964,4.59977,2469.947,2019-12-22T11:41:50Z
2019-12-22T09:44:22Z,42.805,6.029,13.2964,4.59975,2469.984,2019-12-22T11:44:53Z
2019-12-22T09:47:26Z,42.805,6.029,13.2964,4.59972,2469.984,2019-12-22T11:47:57Z
2019-12-22T09:50:29Z,42.805,6.029,13.2974,4.59976,2469.947,2019-12-22T11:51:00Z
2019-12-22T09:53:32Z,42.805,6.029,13.2966,4.59971,2469.923,2019-12-22T11:54:03Z
2019-12-22T09:56:36Z,42.805,6.029,13.2968,4.59978,2469.923,2019-12-22T11:57:06Z
2019-12-22T09:59:39Z,42.805,6.029,13.2967,4.59976,2469.923,2019-12-22T12:00:10Z
2019-12-22T10:02:42Z,42.805,6.029,13.2966,4.59976,2469.923,2019-12-22T12:03:13Z
2019-12-22T10:05:46Z,42.805,6.029,13.2969,4.59979,2469.947,2019-12-22T12:06:16Z
2019-12-22T10:08:49Z,42.805,6.029,13.2974,4.59980,2469.984,2019-12-22T12:09:20Z
2019-12-22T10:11:52Z,42.805,6.029,13.2976,4.59994,2469.97,2019-12-22T12:12:23Z
2019-12-22T10:14:56Z,42.805,6.029,13.2965,4.59989,2469.984,2019-12-22T12:15:26Z
2019-12-22T10:17:59Z,42.805,6.029,13.2970,4.59982,2469.97,2019-12-22T12:18:29Z
2019-12-22T10:21:02Z,42.805,6.029,13.2973,4.59981,2469.937,2019-12-22T12:21:33Z
2019-12-22T10:24:05Z,42.805,6.029,13.2976,4.59990,2470.007,2019-12-22T12:24:36Z
2019-12-22T10:27:09Z,42.805,6.029,13.2970,4.59976,2469.947,2019-12-22T12:27:39Z
2019-12-22T10:30:12Z,42.805,6.029,13.2967,4.59982,2469.97,2019-12-22T12:30:42Z
2019-12-22T10:33:15Z,42.805,6.029,13.2971,4.59988,2469.947,2019-12-22T12:33:46Z
2019-12-22T10:36:18Z,42.805,6.029,13.2961,4.59974,2469.96,2019-12-22T12:36:49Z
2019-12-22T10:39:22Z,42.805,6.029,13.2964,4.59979,2469.96,2019-12-22T12:39:52Z
2019-12-22T10:42:25Z,42.805,6.029,13.2963,4.59986,2469.96,2019-12-22T12:42:56Z
2019-12-22T10:45:28Z,42.805,6.029,13.2971,4.59996,2469.96,2019-12-22T12:45:59Z
2019-12-22T10:48:31Z,42.805,6.029,13.2965,4.59981,2469.96,2019-12-22T12:49:02Z
2019-12-22T10:51:35Z,42.805,6.029,13.2967,4.59985,2469.947,2019-12-22T12:52:05Z
2019-12-22T10:54:38Z,42.805,6.029,13.2971,4.59985,2469.923,2019-12-22T12:55:08Z
2019-12-22T10:57:41Z,42.805,6.029,13.2969,4.59988,2469.947,2019-12-22T12:58:12Z
2019-12-22T11:00:44Z,42.805,6.029,13.2968,4.59976,2469.947,2019-12-22T13:01:15Z
2019-12-22T11:03:47Z,42.805,6.029,13.2966,4.59978,2469.96,2019-12-22T13:04:18Z
2019-12-22T11:06:51Z,42.805,6.029,13.2962,4.59973,2469.96,2019-12-22T13:07:21Z
2019-12-22T11:09:54Z,42.805,6.029,13.2971,4.59975,2469.937,2019-12-22T13:10:24Z
2019-12-22T11:12:57Z,42.805,6.029,13.2967,4.59997,2469.947,2019-12-22T13:13:28Z
2019-12-22T11:16:00Z,42.805,6.029,13.2964,4.59990,2469.96,2019-12-22T13:16:31Z
2019-12-22T11:19:03Z,42.805,6.029,13.2961,4.59974,2469.9,2019-12-22T13:19:34Z
2019-12-22T11:22:07Z,42.805,6.029,13.2966,4.59970,2469.947,2019-12-22T13:22:37Z
2019-12-22T11:25:10Z,42.805,6.029,13.2961,4.59969,2469.937,2019-12-22T13:25:41Z
2019-12-22T11:28:14Z,42.805,6.029,13.2970,4.59971,2469.947,2019-12-22T13:28:44Z
2019-12-22T11:31:17Z,42.805,6.029,13.2969,4.59990,2469.97,2019-12-22T13:31:47Z
2019-12-22T11:34:20Z,42.805,6.029,13.2976,4.59978,2469.923,2019-12-22T13:34:51Z
2019-12-22T11:37:23Z,42.805,6.029,13.2967,4.59986,2469.97,2019-12-22T13:37:54Z
2019-12-22T11:40:26Z,42.805,6.029,13.2968,4.59992,2469.947,2019-12-22T13:40:57Z
2019-12-22T11:43:30Z,42.805,6.029,13.2967,4.59979,2469.947,2019-12-22T13:44:00Z
2019-12-22T11:46:33Z,42.805,6.029,13.2967,4.59982,2469.937,2019-12-22T13:47:04Z
2019-12-22T11:49:36Z,42.805,6.029,13.2967,4.59982,2469.947,2019-12-22T13:50:07Z
2019-12-22T11:52:39Z,42.805,6.029,13.2964,4.59976,2469.947,2019-12-22T13:53:10Z
2019-12-22T11:55:43Z,42.805,6.029,13.2966,4.59988,2469.947,2019-12-22T13:56:13Z
2019-12-22T11:58:46Z,42.805,6.029,13.2961,4.59976,2469.9,2019-12-22T13:59:16Z
2019-12-22T12:01:49Z,42.805,6.029,13.2965,4.59968,2469.947,2019-12-22T14:02:20Z
2019-12-22T12:04:52Z,42.805,6.029,13.2967,4.60003,2469.947,2019-12-22T14:05:23Z
2019-12-22T12:07:56Z,42.805,6.029,13.2968,4.59971,2469.947,2019-12-22T14:08:26Z
2019-12-22T12:10:59Z,42.805,6.029,13.2962,4.59991,2469.923,2019-12-22T14:11:29Z
2019-12-22T12:14:02Z,42.805,6.029,13.2969,4.59990,2469.947,2019-12-22T14:14:33Z
2019-12-22T12:17:05Z,42.805,6.029,13.2964,4.59978,2469.96,2019-12-22T14:17:36Z
2019-12-22T12:20:09Z,42.805,6.029,13.2971,4.59991,2469.947,2019-12-22T14:20:39Z
2019-12-22T12:23:12Z,42.805,6.029,13.2976,4.59991,2469.937,2019-12-22T14:23:42Z
2019-12-22T12:26:15Z,42.805,6.029,13.2973,4.59989,2469.984,2019-12-22T14:26:46Z
2019-12-22T12:29:18Z,42.805,6.029,13.2967,4.59985,2469.947,2019-12-22T14:29:49Z
2019-12-22T12:32:21Z,42.805,6.029,13.2974,4.59981,2469.937,2019-12-22T14:32:52Z
2019-12-22T12:35:25Z,42.805,6.029,13.2973,4.60003,2469.951,2019-12-22T14:35:55Z
2019-12-22T12:38:28Z,42.805,6.029,13.2962,4.59982,2469.923,2019-12-22T14:38:58Z
2019-12-22T12:41:31Z,42.805,6.029,13.2969,4.60004,2469.876,2019-12-22T14:42:02Z
2019-12-22T12:44:34Z,42.805,6.029,13.2973,4.59986,2469.96,2019-12-22T14:45:05Z
2019-12-22T12:47:37Z,42.805,6.029,13.2969,4.59975,2469.947,2019-12-22T14:48:08Z
2019-12-22T12:50:41Z,42.805,6.029,13.2964,4.59988,2469.984,2019-12-22T14:51:11Z
2019-12-22T12:53:44Z,42.805,6.029,13.2967,4.59987,2469.947,2019-12-22T14:54:15Z
2019-12-22T12:56:47Z,42.805,6.029,13.2965,4.59975,2469.947,2019-12-22T14:57:18Z
2019-12-22T12:59:50Z,42.805,6.029,13.2968,4.59996,2469.97,2019-12-22T15:00:21Z
2019-12-22T13:02:54Z,42.805,6.029,13.2974,4.60009,2469.947,2019-12-22T15:03:24Z
2019-12-22T13:05:57Z,42.805,6.029,13.2974,4.59988,2470.007,2019-12-22T15:06:27Z
2019-12-22T13:09:00Z,42.805,6.029,13.2976,4.60005,2469.97,2019-12-22T15:09:31Z
2019-12-22T13:12:03Z,42.805,6.029,13.2969,4.59988,2469.984,2019-12-22T15:12:34Z
2019-12-22T13:15:06Z,42.805,6.029,13.2967,4.59976,2469.947,2019-12-22T15:15:37Z
2019-12-22T13:18:10Z,42.805,6.029,13.2967,4.59981,2469.979,2019-12-22T15:18:40Z
2019-12-22T13:21:13Z,42.805,6.029,13.2970,4.59978,2469.96,2019-12-22T15:21:43Z
2019-12-22T13:24:16Z,42.805,6.029,13.2964,4.59982,2469.993,2019-12-22T15:24:47Z
2019-12-22T13:27:19Z,42.805,6.029,13.2968,4.59985,2469.993,2019-12-22T15:27:50Z
2019-12-22T13:30:23Z,42.805,6.029,13.2968,4.59984,2469.984,2019-12-22T15:30:53Z
2019-12-22T13:33:26Z,42.805,6.029,13.2971,4.59990,2470.007,2019-12-22T15:33:56Z
2019-12-22T13:36:29Z,42.805,6.029,13.2975,4.59994,2470.007,2019-12-22T15:37:00Z
2019-12-22T13:39:32Z,42.805,6.029,13.2964,4.59981,2470.03,2019-12-22T15:40:03Z
2019-12-22T13:42:35Z,42.805,6.029,13.2974,4.59986,2469.993,2019-12-22T15:43:06Z
2019-12-22T13:45:39Z,42.805,6.029,13.2973,4.59978,2469.993,2019-12-22T15:46:09Z
2019-12-22T13:48:42Z,42.805,6.029,13.2968,4.59980,2469.984,2019-12-22T15:49:12Z
2019-12-22T13:51:45Z,42.805,6.029,13.2968,4.59977,2469.947,2019-12-22T15:52:16Z
2019-12-22T13:54:48Z,42.805,6.029,13.2967,4.59978,2469.97,2019-12-22T15:55:19Z
2019-12-22T13:57:52Z,42.805,6.029,13.2967,4.59976,2470.007,2019-12-22T15:58:22Z
2019-12-22T14:00:55Z,42.805,6.029,13.2964,4.59977,2469.947,2019-12-22T16:01:25Z
2019-12-22T14:03:58Z,42.805,6.029,13.2970,4.59999,2470.007,2019-12-22T16:04:29Z
2019-12-22T14:07:01Z,42.805,6.029,13.2964,4.59985,2470.017,2019-12-22T16:07:32Z
2019-12-22T14:10:05Z,42.805,6.029,13.2967,4.59985,2469.97,2019-12-22T16:10:35Z
2019-12-22T14:13:08Z,42.805,6.029,13.2970,4.59991,2469.984,2019-12-22T16:13:38Z
2019-12-22T14:16:11Z,42.805,6.029,13.2982,4.59991,2469.993,2019-12-22T16:16:42Z
2019-12-22T14:19:14Z,42.805,6.029,13.2973,4.60000,2470.017,2019-12-22T16:19:45Z
2019-12-22T14:22:17Z,42.805,6.029,13.2979,4.60000,2469.993,2019-12-22T16:22:48Z
2019-12-22T14:25:21Z,42.805,6.029,13.2969,4.59996,2470.026,2019-12-22T16:25:51Z
2019-12-22T14:28:24Z,42.805,6.029,13.2972,4.59993,2470.017,2019-12-22T16:28:54Z
2019-12-22T14:31:27Z,42.805,6.029,13.2976,4.59999,2470.04,2019-12-22T16:31:58Z
2019-12-22T14:34:30Z,42.805,6.029,13.2973,4.59991,2469.993,2019-12-22T16:35:01Z
2019-12-22T14:37:33Z,42.805,6.029,13.2965,4.59981,2470.03,2019-12-22T16:38:04Z
2019-12-22T14:40:37Z,42.805,6.029,13.2976,4.59996,2469.993,2019-12-22T16:41:07Z
2019-12-22T14:43:40Z,42.805,6.029,13.2968,4.59998,2470.017,2019-12-22T16:44:10Z
2019-12-22T14:46:43Z,42.805,6.029,13.2967,4.60003,2470.04,2019-12-22T16:47:14Z
2019-12-22T14:49:46Z,42.805,6.029,13.2970,4.59995,2470.03,2019-12-22T16:50:17Z
2019-12-22T14:52:49Z,42.805,6.029,13.2964,4.60000,2470.017,2019-12-22T16:53:20Z
2019-12-22T14:55:53Z,42.805,6.029,13.2971,4.60001,2470.03,2019-12-22T16:56:23Z
2019-12-22T14:58:56Z,42.805,6.029,13.2968,4.60014,2470.017,2019-12-22T16:59:26Z
2019-12-22T15:01:59Z,42.805,6.029,13.2968,4.60000,2470.007,2019-12-22T17:02:30Z